Torna al catalogo

STARLINK-11170

AttivoComunicazioniVLEO
NORAD 60068·PAYLOAD·🇺🇸 United States

Lanciato Jun 19, 2024 da Vandenberg Space Force Base

Loading…

Prossimi Passaggi (prossime 24 ore)

TLE

AggiornatoSource: CelesTrak SupGP

Epoca: Sep 14, 2026, 21:40 UTC

1 60068C 24113K   26257.90326389 -.00060437  00000+0 -49774-3 0  2575
2 60068  53.1568 338.8116 0001267  71.3655 319.6716 15.69743907    18

Traccia STARLINK-11170 in tempo reale con AllMySat

Download on the App Store